CW3007 Weather Reports


Display with metric or nautical units.
time (UTC)temp
F
wind
direction
speed
MPH
gust
MPH
rain 1hr
in
rain 24hr
in
rain mn
in
humidity
%
barometer
mb
20260505124627 72 211 6.0 14.0 0.00 0.00 0.00 84 1006.0
20260505123627 72 192 8.0 13.0 0.00 0.00 0.00 84 1005.8
20260505122627 72 212 6.0 13.0 0.00 0.00 0.00 83 1005.7
20260505121627 72 187 11.0 12.0 0.00 0.00 0.00 83 1005.6
20260505114627 72 178 8.0 14.0 0.00 0.00 0.00 83 1005.4
20260505113627 71 161 5.0 11.0 0.00 0.00 0.00 83 1005.3
20260505112626 71 182 7.0 16.0 0.00 0.00 0.00 83 1005.4
20260505111626 71 150 8.0 15.0 0.00 0.00 0.00 83 1005.2
20260505110626 71 190 6.0 13.0 0.00 0.00 0.00 83 1005.4
20260505101625 71 215 5.0 10.0 0.00 0.00 0.00 82 1005.7
20260505100626 71 198 7.0 11.0 0.00 0.00 0.00 81 1005.8
20260505095626 71 196 10.0 13.0 0.00 0.00 0.00 81 1005.8
20260505094627 72 157 10.0 14.0 0.00 0.00 0.00 81 1005.6
20260505093627 72 190 8.0 13.0 0.00 0.00 0.00 81 1005.8
20260505092627 72 188 6.0 15.0 0.00 0.00 0.00 81 1005.8
20260505091627 72 179 13.0 14.0 0.00 0.00 0.00 81 1005.9
20260505085626 72 175 8.0 14.0 0.00 0.00 0.00 82 1005.8
20260505084627 72 203 6.0 19.0 0.00 0.00 0.00 82 1006.1
20260505083626 72 187 5.0 18.0 0.00 0.00 0.00 82 1006.0
20260505082625 72 182 7.0 20.0 0.00 0.00 0.00 82 1006.4
20260505081626 72 175 10.0 19.0 0.00 0.00 0.00 81 1006.4
20260505080626 72 181 9.0 19.0 0.00 0.00 0.00 82 1006.5
20260505075627 72 178 9.0 18.0 0.00 0.00 0.00 82 1006.3
20260505074626 72 194 13.0 18.0 0.00 0.00 0.00 82 1006.6
20260505073626 72 175 8.0 17.0 0.00 0.00 0.00 82 1006.5
20260505072627 72 158 6.0 21.0 0.00 0.00 0.00 81 1006.6
20260505071627 72 172 10.0 16.0 0.00 0.00 0.00 81 1007.0
20260505070626 72 194 10.0 18.0 0.00 0.00 0.00 81 1007.0
20260505065627 72 175 7.0 17.0 0.00 0.00 0.00 81 1007.2
20260505064627 72 143 9.0 17.0 0.00 0.00 0.00 81 1007.3
20260505063626 72 171 14.0 19.0 0.00 0.00 0.00 81 1007.3
20260505062626 72 187 9.0 17.0 0.00 0.00 0.00 81 1007.4
20260505061626 72 176 9.0 16.0 0.00 0.00 0.00 81 1007.6
20260505060626 72 175 12.0 21.0 0.00 0.00 0.00 81 1007.6
20260505055627 72 211 14.0 20.0 0.00 0.00 0.00 81 1007.5
20260505054627 72 175 8.0 16.0 0.00 0.00 0.00 81 1007.6
20260505052626 72 186 10.0 14.0 0.00 0.00 0.00 81 1007.5
20260505051627 72 185 6.0 16.0 0.00 0.00 0.00 81 1007.5
20260505041625 73 207 4.0 17.0 0.00 0.00 0.00 79 1007.5
20260505040625 73 135 5.0 15.0 0.00 0.00 0.00 78 1007.5
20260505035626 73 160 5.0 10.0 0.00 0.00 0.00 78 1007.6
20260505033627 74 159 7.0 13.0 0.00 0.00 0.00 77 1007.6
20260505032626 74 140 7.0 14.0 0.00 0.00 0.00 76 1007.5
20260505031625 74 170 5.0 12.0 0.00 0.00 0.00 76 1007.4
20260505030625 75 173 5.0 10.0 0.00 0.00 0.00 75 1007.5
20260505025626 75 166 5.0 15.0 0.00 0.00 0.00 74 1007.6
20260505024626 75 169 10.0 13.0 0.00 0.00 0.00 73 1007.4
20260505023629 76 184 4.0 11.0 0.00 0.00 0.00 72 1007.4
20260505021625 76 193 4.0 13.0 0.00 0.00 0.00 71 1007.3
20260505014627 77 192 4.0 10.0 0.00 0.00 0.00 69 1007.1
20260505013626 77 175 2.0 8.0 0.00 0.00 0.00 68 1007.2
20260505012626 78 215 5.0 9.0 0.00 0.00 0.00 66 1007.2
20260505011625 78 188 5.0 10.0 0.00 0.00 0.00 65 1007.1
20260505010626 78 201 3.0 12.0 0.00 0.00 0.00 65 1007.1
20260505004627 79 162 11.0 13.0 0.00 0.00 0.00 64 1007.1
20260505003625 79 171 13.0 17.0 0.00 0.00 0.00 63 1007.1
20260505002625 79 182 10.0 19.0 0.00 0.00 0.00 62 1007.0
20260505001626 80 192 7.0 14.0 0.00 0.00 0.00 62 1006.9
20260505000626 80 190 5.0 14.0 0.00 0.00 0.00 61 1006.9
20260504235625 81 173 11.0 15.0 0.00 0.00 0.00 61 1007.0
20260504234626 81 142 13.0 17.0 0.00 0.00 0.00 60 1007.0
20260504232625 81 155 11.0 16.0 0.00 0.00 0.00 60 1007.4
20260504231626 81 165 6.0 17.0 0.00 0.00 0.00 60 1007.4
20260504230626 82 205 8.0 22.0 0.00 0.00 0.00 59 1007.5
20260504224624 82 150 9.0 18.0 0.00 0.00 0.00 60 1007.7
20260504221624 82 209 12.0 19.0 0.00 0.00 0.00 59 1008.0
20260504220625 82 158 8.0 18.0 0.00 0.00 0.00 58 1007.9
20260504214624 82 141 13.0 18.0 0.00 0.00 0.00 58 1008.0
20260504213624 82 199 9.0 16.0 0.00 0.00 0.00 59 1008.1
20260504212624 81 189 11.0 16.0 0.00 0.00 0.00 61 1008.5
20260504211624 82 137 9.0 16.0 0.00 0.00 0.00 59 1008.8
20260504210624 82 136 7.0 16.0 0.00 0.00 0.00 60 1008.9
20260504204624 82 158 11.0 19.0 0.00 0.00 0.00 60 1009.2
20260504203625 81 201 5.0 13.0 0.00 0.00 0.00 59 1009.4
20260504202625 81 170 5.0 15.0 0.00 0.00 0.00 60 1009.7
20260504201624 82 213 8.0 13.0 0.00 0.00 0.00 59 1009.8
20260504200624 81 186 5.0 15.0 0.00 0.00 0.00 60 1010.0
20260504195624 81 171 16.0 18.0 0.00 0.00 0.00 59 1010.1
20260504194625 81 130 17.0 17.0 0.00 0.00 0.00 60 1010.4
20260504193625 81 171 6.0 15.0 0.00 0.00 0.00 60 1010.5
20260504191624 81 175 10.0 17.0 0.00 0.00 0.00 60 1010.9
20260504190625 79 188 3.0 14.0 0.00 0.00 0.00 62 1011.1
20260504185624 79 130 9.0 16.0 0.00 0.00 0.00 63 1011.1
20260504184625 79 175 6.0 15.0 0.00 0.00 0.00 63 1011.1
20260504183625 78 160 13.0 16.0 0.00 0.00 0.00 63 1011.3
20260504182624 78 210 7.0 14.0 0.00 0.00 0.00 63 1011.5
20260504180624 78 211 9.0 17.0 0.00 0.00 0.00 64 1011.8
20260504175624 76 168 9.0 16.0 0.00 0.00 0.00 65 1012.0
20260504174624 76 209 9.0 17.0 0.00 0.00 0.00 64 1012.2
20260504172624 76 177 13.0 16.0 0.00 0.00 0.00 65 1012.6
20260504171624 76 235 7.0 19.0 0.00 0.00 0.00 66 1012.9
20260504170624 75 200 8.0 16.0 0.00 0.00 0.00 67 1013.0
20260504150624 71 184 10.0 19.0 0.00 0.00 0.00 70 1013.6